Regional Weather Roundup
Issued by NWS

Home | Current Version | Previous Version | Text Only | Print | Product List | Glossary On
Versions: 1 2 3 4 5 6 7 8 9 10 11 12 13 14 15 16 17 18 19 20 21 22 23 24 25 26 27
000
ASUS42 KTBW 241018
RWRFL
FLORIDA REGIONAL WEATHER ROUNDUP
NATIONAL WEATHER SERVICE TAMPA BAY RUSKIN FL
600 AM EDT MON JUL 24 2017

NOTE: "FAIR" INDICATES FEW OR NO CLOUDS BELOW 12,000 FEET WITH NO
SIGNIFICANT WEATHER AND/OR OBSTRUCTIONS TO VISIBILITY.

FLZ001>010-012>015-112-114-115-241100-
PANHANDLE FLORIDA

CITY           SKY/WX    TMP DP  RH WIND       PRES   REMARKS
PENSACOLA      CLOUDY    79  72  79 W8        29.96S
PENSACOLA NAS  PTCLDY    77  72  84 CALM      29.96S
MILTON NAS     PTCLDY    74  73  97 W7        29.97
CRESTVIEW      LGT RAIN  76  73  91 W3        29.98R
DUKE FIELD     FAIR      76  73  92 W6        29.96R
VALPARAISO     MOCLDY    77  74  91 W7        29.96R
PANAMA CITY    FAIR      76  73  91 SW8       29.95R
TYNDALL AFB    CLOUDY    79  73  83 W8        29.98R
APALACHICOLA   PTCLDY    81  74  79 W20G33    29.98R

STATION/POSITION SKY/WX   TEMP    WIND        PRES    WAVE   SWELL
                          AIR SEA DIR/SP/G            HT/PER HT/PER
                          (F)     (DEG/KT/KT) (MB)    (FT/S) (FT/S)
30.1N   87.6W              80 85  310/ 12/ 14 1014.4    2/ 5
29.2N   88.2W              83 85  240/ 16/ 17 1015.8R   2/ 3
28.8N   86.0W              83 84  250/ 16/ 17 1015.0    2/ 4
PANAMA CITY BEAC           81     260/ 12/ 16 1015.1R
TOWER C          NOT AVBL
28.5N   84.5W              83 86  230/ 14/ 19 1015.4    2/ 3

$$
FLZ011-016>038-118-127-128-134-139-239-241100-
NORTH FLORIDA

CITY           SKY/WX    TMP DP  RH WIND       PRES   REMARKS
MARIANNA       CLOUDY    76  74  93 S7        29.95S
TALLAHASSEE    CLOUDY    75  74  96 CALM      29.98R
PERRY          CLOUDY    76  74  96 CALM      30.00R FOG
LIVE OAK       CLOUDY    75  75 100 CALM      30.01R
CROSS CITY     PTCLDY    75  73  94 S6        30.05R
LAKE CITY      CLOUDY    73  73 100 CALM      30.01R
GAINESVILLE    PTCLDY    75  73  93 SW7       30.04R
WILLISTON      CLEAR     75  75 100 SW7G13    30.03R FOG
PALATKA        FAIR      72  72 100 CALM      30.02R
MAYPORT NAS    PTCLDY    75  74  96 S6        30.00R
JACKSONVILLE   CLOUDY    74  74 100 S3        29.99R
JAX NAS        MOCLDY    77  74  90 S5        30.01R
JAX CECIL      PTCLDY    73  73 100 CALM      30.00R
FERNANDINA BEA FAIR      79  75  89 SW6       29.98S
ST AUGUSTINE   CLEAR     75  73  93 SW6       30.02R
PALM COAST     CLEAR     73  73 100 CALM      30.01R

STATION/POSITION SKY/WX   TEMP    WIND        PRES    WAVE   SWELL
                          AIR SEA DIR/SP/G            HT/PER HT/PER
                          (F)     (DEG/KT/KT) (MB)    (FT/S) (FT/S)
SHELL POINT      NOT AVBL
KEATON BEACH               83     250/ 12/ 14 1015.1R
CEDAR KEY                  80     260/  5/  6 1015.7F
FERNANDINA                 77 83  180/  3/  6 1016.4R
30.7N   81.3W                 78                N/A     2/ 9
MAYPORT                    76 81  210/  4/  7 1016.3R
31.4N   80.9W              80 81  220/ 17/ 21 1014.6R   4/ 5   2/10
ST AUGUSTINE               75 74  230/  4/  5 1016.3R

$$
FLZ040-043>046-052-053-057-058-063-144-241100-
INTERIOR CENTRAL FLORIDA

CITY           SKY/WX    TMP DP  RH WIND       PRES   REMARKS
OCALA          MOCLDY    74  74 100 SW5       30.03R
THE VILLAGES     N/A     77  77 100 CALM      29.92R
LEESBURG       PTCLDY    79  76  90 SW8       30.03R
SANFORD        CLOUDY    78  75  90 SW5       30.02R
ORLANDO INTL   CLOUDY    76  76 100 SW3       30.02R
KISSIMMEE      MOCLDY    77  75  93 SW3       30.03R
WINTER HAVEN   CLOUDY    77  73  87 SW5       30.03R
LAKELAND       PTCLDY    75  75 100 CALM      30.03R
BARTOW         FAIR      73 N/A N/A CALM      30.03R
SEBRING        FAIR      76  73  88 S3        30.03R
OKEECHOBEE     PTCLDY    72  72 100 CALM      30.04R

$$
FLZ041-047-054-059-064-141-147-241100-
EAST CENTRAL FLORIDA

CITY           SKY/WX    TMP DP  RH WIND       PRES   REMARKS
DAYTONA BEACH  CLOUDY    77  76  96 SW3       30.01R
DELAND         PTCLDY    77  75  94 SW5       30.01R
CAPE CANAVERAL CLOUDY    77  77  98 S3        30.00R
PATRICK AFB    CLOUDY    79  76  91 S6        30.02R
MELBOURNE      CLOUDY    79  76  90 S7        30.02R
VERO BEACH     CLOUDY    78  76  93 S5        30.03R
FT PIERCE      CLOUDY    77  76  96 SW3       30.03R
STUART         CLEAR     77  77 100 CALM      30.05R

STATION/POSITION SKY/WX   TEMP    WIND        PRES    WAVE   SWELL
                          AIR SEA DIR/SP/G            HT/PER HT/PER
                          (F)     (DEG/KT/KT) (MB)    (FT/S) (FT/S)
28.5N   80.2W              82 83  200/ 10/ 12 1017.6R   2/ 9   2/ 9
28.9N   78.5W              77 84  270/  8/ 12 1017.8R   4/ 4   2/ 9
TRIDENT PIER               79 81  210/  5/  7 1017.8R
28.4N   80.5W                 81                N/A     2/ 4
27.5N   80.2W                 81                N/A     2/10

$$
FLZ050-056-061-142-242-148-248-149-249-151-251-155-255-
160-260-241100-
WEST CENTRAL FLORIDA

CITY           SKY/WX    TMP DP  RH WIND       PRES   REMARKS
CRYSTAL RIVER  FAIR      73  73 100 CALM      30.02R
INVERNESS      FAIR      73  73 100 CALM      30.02R FOG
BROOKSVILLE    PTCLDY    75  74  96 CALM      30.02R
CLEARWATER AIR FAIR      77  77 100 CALM      30.01R
ST PETE CLEARW CLOUDY    79  76  90 S3        30.01R
TAMPA INTL     CLOUDY    81  77  88 S3        30.02R
TAMPA EXEC     CLOUDY    77  73  88 CALM      30.02S FOG
PLANT CITY     CLOUDY    77  77 100 CALM      30.04S
MACDILL AFB    MOCLDY    80  80 100 S3        30.01R
PETER O KNIGHT MOCLDY    81  81 100 S6        30.02R
ST PETERSBURG  CLOUDY    82  78  88 SW5       30.00R
SARASOTA       MOCLDY    76  74  93 SE7       30.00S
VENICE           N/A     77  75  94 CALM      30.03R

STATION/POSITION SKY/WX   TEMP    WIND        PRES    WAVE   SWELL
                          AIR SEA DIR/SP/G            HT/PER HT/PER
                          (F)     (DEG/KT/KT) (MB)    (FT/S) (FT/S)
27.3N   84.2W                 87                N/A     2/ 7
CLEARWATER BEACH           85 86  220/ 10/ 13 1016.3R
MIDDLE TAMPA BAY           79     200/  4/  7 1016.5R
VENICE                     78 87  120/  4/  4 1016.8R

$$
FLZ066-069-070-075>078-162-262-165-265-241100-
SOUTHWEST FLORIDA AND KEYS

CITY           SKY/WX    TMP DP  RH WIND       PRES   REMARKS
PUNTA GORDA    CLEAR     74  73  97 CALM      30.05R
FT MYERS       CLEAR     77  77 100 VRB3      30.03R
SOUTHWEST INTL CLEAR     76  74  93 CALM      30.03R
NAPLES         CLEAR     77  76  96 E3        30.02R
MARCO ISLAND   CLEAR     79  75  89 NE5       30.02S
IMMOKALEE      FAIR      73  73 100 CALM      30.04R
MARATHON       MOCLDY    84  80  88 S6        30.01R HX  97
KEY WEST NAS   CLOUDY    83  79  88 SE9       30.00R
KEY WEST INTL  PTCLDY    85  78  80 E10       30.00R HX  96

STATION/POSITION SKY/WX   TEMP    WIND        PRES    WAVE   SWELL
                          AIR SEA DIR/SP/G            HT/PER HT/PER
                          (F)     (DEG/KT/KT) (MB)    (FT/S) (FT/S)
NAPLES                        87   60/  3/  4 1016.5R
DRY TORTUGAS               85     110/  8/ 10 1016.2R
SAND KEY                   84     140/ 13/ 14 1016.4R

$$
FLZ067-068-071>074-168-172>174-241100-
SOUTHEAST FLORIDA

CITY           SKY/WX    TMP DP  RH WIND       PRES   REMARKS
W PALM BEACH   PTCLDY    78  74  87 CALM      30.04R
FT LAUDER-EXEC PTCLDY    80  74  81 CALM      30.03R
FT LAUDERDALE  PTCLDY    80  76  87 N5        30.02R
POMPANO BEACH  CLEAR     82  76  81 CALM      30.03R
PEMBROKE PINES CLEAR     80  77  90 CALM      30.04R
OPA LOCKA      CLEAR    N/A N/A N/A CALM      30.03R
MIAMI          PTCLDY    83  75  77 CALM      30.03R
WEST KENDALL   CLEAR     78  74  87 CALM      30.03R
HOMESTEAD      LGT RAIN  79  79 100 S6        30.02R FOG

STATION/POSITION SKY/WX   TEMP    WIND        PRES    WAVE   SWELL
                          AIR SEA DIR/SP/G            HT/PER HT/PER
                          (F)     (DEG/KT/KT) (MB)    (FT/S) (FT/S)
PORT EVERGLADES            82     310/  3/  4 1016.7R
VIRGINIA KEY               84 87  160/  2/  3 1016.1R
LAKE WORTH                         CALM  /  2   N/A
FOWEY ROCKS                84 85  150/ 10/ 10 1016.9R
SETTLEMENT POINT           84     180/  8/ 10 1017.4R

$$





USA.gov is the U.S. government's official web portal to all federal, state and local government web resources and services.